Location: ???????
(37.9763°N, 23.8889°E)
Time: 02:06:18
(UTC+00:00)

Daily predictions for brighter satellites

Satellite Brightness Start Highest point End
(mag) Time Altitude Azimuth Time Altitude Azimuth Time Altitude Azimuth
Cosmos 2237 Rocket 4.1 00:01:59 10° WNW 00:03:59 15° W 00:03:59 15° W
Cosmos 2227 Rocket 4.1 00:05:20 15° W 00:07:28 19° NW 00:11:22 10° N
CZ-2C R/B 3.2 00:09:51 28° SE 00:12:27 54° ENE 00:17:40 10° N
Cosmos 1869 3.6 00:08:47 10° N 00:11:48 57° N 00:11:48 57° N
Cosmos 1544 Rocket 3.5 00:08:09 10° N 00:12:36 79° E 00:12:55 73° SE
IDEFIX/ARIANE 42P 2.5 00:08:11 10° NNE 00:13:27 87° ESE 00:14:28 59° S
Cosmos 1943 4.2 00:08:20 10° N 00:13:42 45° ENE 00:19:02 10° SE
CENTAUR R/B 4.0 00:12:18 18° W 00:15:28 27° NW 00:21:13 10° NNE
CZ-2C R/B 3.5 00:13:00 10° NNE 00:18:16 55° E 00:19:50 40° SSE
Cosmos 2228 3.2 00:14:20 10° N 00:18:37 66° E 00:19:18 56° SE
Cosmos 1437 Rocket 3.5 00:18:39 42° ESE 00:18:55 42° E 00:22:32 10° NNE
Cosmos 1959 Rocket 4.5 00:18:32 48° SSW 00:20:19 71° W 00:26:40 10° N
USA 238 DEB 3.7 00:19:08 43° S 00:21:00 61° ESE 00:27:25 10° NE
CZ-2D R/B 2.2 00:15:42 10° NNE 00:21:01 71° ESE 00:22:29 47° S
USA 238 3.7 00:19:10 42° S 00:21:03 60° ESE 00:27:28 10° NE
Cosmos 1975 Rocket 4.5 00:21:39 26° WNW 00:21:39 26° WNW 00:25:03 10° NNW
FENGYUN 3A 4.3 00:17:54 10° NNE 00:23:06 47° E 00:25:15 31° SSE
COBE Rocket 4.5 00:24:19 10° N 00:29:15 46° WNW 00:30:13 41° WSW
H-2A R/B 3.5 00:31:59 10° N 00:35:53 55° WNW 00:36:04 54° W
NPP 3.8 00:31:55 10° N 00:37:13 59° WNW 00:38:46 42° SW
ASTEX 1 4.4 00:35:14 17° SE 00:38:40 42° E 00:43:15 10° N
Cosmos 2227 4.2 00:36:55 44° SW 00:38:46 73° WNW 00:44:32 10° NNE
Cosmos 1867 3.5 00:38:00 45° SSW 00:39:43 79° ESE 00:45:12 10° NNE
Meteor 2-13 Rocket 4.4 00:40:28 10° N 00:46:35 89° ENE 00:50:25 24° S
Cosmos 1606 Rocket 4.4 00:43:50 10° N 00:48:08 47° E 00:51:14 17° SSE
ADEOS II 2.0 00:43:18 10° NNE 00:48:35 85° ESE 00:50:49 36° S
Cosmos 1844 3.9 00:46:00 33° S 00:48:37 66° ESE 00:54:22 10° NNE
Cosmos 921 Rocket 4.2 00:46:33 10° N 00:50:33 40° ENE 00:54:27 10° SE
Cosmos 1536 Rocket 3.9 00:50:03 44° WSW 00:50:49 49° W 00:55:08 10° N
GRACE-FO 1 4.5 01:00:11 57° SW 01:00:35 62° W 01:04:05 10° N
GRACE-FO 2 4.5 01:00:37 56° SW 01:01:00 61° W 01:04:31 10° N
Resurs 1-4 Rocket 2.6 00:56:07 10° N 01:01:06 45° WNW 01:03:08 31° WSW
Cosmos 2263 Rocket 4.1 00:58:49 13° W 01:01:30 17° NW 01:05:08 10° NNW
Cosmos 1726 Rocket 4.3 00:59:27 10° N 01:03:46 52° E 01:07:45 12° SSE
Cosmos 1821 Rocket 4.2 01:01:27 31° SW 01:04:04 50° W 01:10:02 10° N
NOSS 3-2 (C) 4.3 01:03:08 20° W 01:05:57 33° NW 01:11:20 10° NNE
USA 267 3.2 01:03:56 10° NE 01:10:30 86° NW 01:14:40 25° SW
Orbus 7S? 3.7 01:07:48 10° NW 01:11:02 76° NE 01:17:22 10° SE
Cosmos 2058 3.7 01:13:01 16° SSE 01:15:57 46° E 01:19:51 10° NNE
UNK 4.2 01:15:50 10° SSE 01:20:22 61° ENE 01:24:54 10° N
Cosmos 1844 Rocket 2.9 01:17:43 27° SW 01:20:42 57° WNW 01:26:13 10° NNE
Cosmos 1812 3.5 01:18:17 10° N 01:21:45 46° E 01:25:11 10° SSE
AQUA 4.1 01:18:04 10° N 01:22:40 53° WNW 01:25:05 26° SW
BREEZE-M DEB (TANK) 2.6 01:26:02 10° WNW 01:28:32 44° SW 01:34:59 10° SSE
SAR-Lupe-4 3.5 01:26:08 10° N 01:29:41 73° WNW 01:31:30 27° SSW
SL-16 R/B 2.6 01:28:28 10° S 01:34:39 64° WSW 01:40:52 10° NNW
ALOS 2.5 01:32:49 10° N 01:37:17 51° WNW 01:40:13 20° SW
Iridium 2 3.2 01:37:54 34° WSW 01:38:11 36° W 01:40:30 10° NNW
YAOGAN 6 4.1 01:35:49 10° NE 01:38:36 28° E 01:41:22 10° SSE
Cosmos 1892 Rocket 3.8 01:37:09 21° SSW 01:39:49 52° W 01:44:09 10° N
Cosmos 1818 4.5 01:35:26 10° NW 01:39:57 27° WSW 01:43:00 16° SSW
Cosmos 2058 Rocket 3.3 01:36:42 10° N 01:41:08 71° E 01:45:29 10° SSE
Cosmos 1934 Rocket 4.1 01:38:12 16° SSW 01:43:17 61° W 01:49:37 10° N
Cosmos 2123 Rocket 4.0 01:37:33 10° NNW 01:43:43 70° W 01:49:51 10° S
Meteor 1-28 Rocket 4.0 01:44:12 22° SW 01:45:29 28° W 01:48:36 10° NW
Cosmos 1603 4.0 01:41:59 10° NW 01:47:28 47° WSW 01:52:54 10° S
Delta 2 Rocket 3.5 01:46:28 14° W 01:49:43 50° S 01:53:59 10° ESE
H-2A R/B 4.2 01:46:40 10° NE 01:50:50 23° E 01:54:55 10° SE
CZ-2C R/B 4.1 01:51:20 15° WSW 01:53:02 17° W 01:56:22 10° NW
CZ-4 R/B 3.9 01:49:32 10° NNE 01:54:29 88° W 01:59:28 10° SSW
Cosmos 1943 4.3 01:53:05 10° NW 01:57:22 23° W 02:01:03 12° SSW
IRS-1D 4.1 01:53:14 10° NNE 01:58:19 57° E 02:03:16 10° S
CZ-2D R/B 4.1 01:57:38 10° NNW 02:00:21 14° WNW 02:03:03 10° W
SEDSat Delta rocket 3.6 02:01:33 15° WSW 02:04:23 32° S 02:08:04 10° ESE
Cosmos 1626 Rocket 3.6 02:02:26 10° S 02:06:52 87° W 02:11:19 10° N
Cosmos 1544 3.0 02:08:21 14° SW 02:10:13 34° W 02:12:39 10° NNW
Envisat 3.3 02:07:34 10° N 02:12:28 52° WNW 02:17:21 10° SSW
SWAS 4.4 02:14:24 10° SSW 02:18:33 72° WNW 02:22:45 10° NNE
Cosmos 1500 4.3 02:18:06 10° SSE 02:21:19 39° E 02:24:34 10° NNE
NOSS 2-2 (E) 2.9 02:18:48 10° SSW 02:22:23 83° ESE 02:25:31 10° NE
Cosmos 1862 3.8 02:20:48 10° S 02:24:31 60° E 02:28:16 10° NNE
CZ-2C R/B 2.5 02:22:15 10° N 02:26:42 55° WNW 02:31:10 10° SSW
ADEOS II 4.1 02:25:39 10° NW 02:27:25 12° WNW 02:29:11 10° W
BREEZE-M DEB (TANK) 3.0 02:22:26 10° WSW 02:29:22 52° NW 02:32:01 10° NE
Cosmos 1271 Rocket 2.6 02:27:09 10° S 02:30:43 81° E 02:34:18 10° N
Lacrosse 5 3.8 02:28:48 10° S 02:32:47 24° ESE 02:36:47 10° ENE
Okean 1-7 Rocket 3.6 02:29:30 10° SSW 02:34:00 74° W 02:38:29 10° N
Cosmos 1833 Rocket 3.8 02:30:05 10° NNW 02:35:36 52° ENE 02:41:05 10° SE
Cosmos 1484 Rocket 3.9 02:32:03 10° NNE 02:35:43 44° E 02:39:20 10° S
